Weather reports worldwide

Advertisment
Moskva, Russia (27612): temperature & dewpoint: 10.12.2018 01:00:00 - 16.12.2018 01:00:00 (MSK)Moskva, Russia (27612): wind speed: 10.12.2018 01:00:00 - 16.12.2018 01:00:00 (MSK)Moskva, Russia (27612): wind direction: 10.12.2018 01:00:00 - 16.12.2018 01:00:00 (MSK)Moskva, Russia (27612): reduced air pressure: 10.12.2018 01:00:00 - 16.12.2018 01:00:00 (MSK)Moskva, Russia (27612): visibility: 10.12.2018 01:00:00 - 16.12.2018 01:00:00 (MSK)
Date & Time tt [°C] td [°C] ff [km/h] ff [kn] dd ppp [hPa] vv [km]
16.12.2018 01:00:00 - - - - - - -
16.12.2018 00:00:00 -9,9 -11,0 7 4 NNE 1038,3 -
15.12.2018 23:00:00 - - - - - - -
15.12.2018 22:00:00 - - - - - - -
15.12.2018 21:00:00 -8,2 -9,2 4 2 NNE 1037,1 -
15.12.2018 20:00:00 - - - - - - -
15.12.2018 19:00:00 - - - - - - -
15.12.2018 18:00:00 -6,2 -7,2 7 4 N 1036,3 -
15.12.2018 17:00:00 - - - - - - -
15.12.2018 16:00:00 - - - - - - -
15.12.2018 15:00:00 -4,9 -5,8 7 4 NNW 1034,8 4,0
15.12.2018 14:00:00 - - - - - - -
15.12.2018 13:00:00 - - - - - - -
15.12.2018 12:00:00 -3,8 -5,3 11 6 NNE 1033,7 4,0
15.12.2018 11:00:00 - - - - - - -
15.12.2018 10:00:00 - - - - - - -
15.12.2018 09:00:00 -3,5 -4,7 4 2 NNE 1032,3 4,0
15.12.2018 08:00:00 - - - - - - -
15.12.2018 07:00:00 - - - - - - -
15.12.2018 06:00:00 -3,2 -4,8 7 4 N 1031,7 -
15.12.2018 05:00:00 - - - - - - -
15.12.2018 04:00:00 - - - - - - -
15.12.2018 03:00:00 -2,9 -4,1 7 4 N 1031,3 -
15.12.2018 02:00:00 - - - - - - -
15.12.2018 01:00:00 - - - - - - -
15.12.2018 00:00:00 -2,5 -3,6 7 4 N 1030,5 -
14.12.2018 23:00:00 - - - - - - -
14.12.2018 22:00:00 - - - - - - -
14.12.2018 21:00:00 -2,1 -3,4 7 4 NNE 1030,0 -
14.12.2018 20:00:00 - - - - - - -
14.12.2018 19:00:00 - - - - - - -
14.12.2018 18:00:00 -1,8 -3,0 4 2 NE 1029,4 -
14.12.2018 17:00:00 - - - - - - -
14.12.2018 16:00:00 - - - - - - -
14.12.2018 15:00:00 -1,7 -3,2 4 2 NNE 1028,8 4,0
14.12.2018 14:00:00 - - - - - - -
14.12.2018 13:00:00 - - - - - - -
14.12.2018 12:00:00 -1,9 -3,1 7 4 NE 1028,4 4,0
14.12.2018 11:00:00 - - - - - - -
14.12.2018 10:00:00 - - - - - - -
14.12.2018 09:00:00 -2,0 -3,4 4 2 ENE 1028,0 4,0
14.12.2018 08:00:00 - - - - - - -
14.12.2018 07:00:00 - - - - - - -
14.12.2018 06:00:00 -2,1 -3,5 4 2 NE 1027,5 -
14.12.2018 05:00:00 - - - - - - -
14.12.2018 04:00:00 - - - - - - -
14.12.2018 03:00:00 -2,2 -3,7 4 2 ENE 1027,3 -
14.12.2018 02:00:00 - - - - - - -
14.12.2018 01:00:00 - - - - - - -
14.12.2018 00:00:00 -2,0 -3,8 4 2 ENE 1026,7 -
13.12.2018 23:00:00 - - - - - - -
13.12.2018 22:00:00 - - - - - - -
13.12.2018 21:00:00 -1,8 -3,2 4 2 ENE 1025,4 -
13.12.2018 20:00:00 - - - - - - -
13.12.2018 19:00:00 - - - - - - -
13.12.2018 18:00:00 -1,1 -2,9 4 2 ENE 1024,3 -
13.12.2018 17:00:00 - - - - - - -
13.12.2018 16:00:00 - - - - - - -
13.12.2018 15:00:00 -0,8 -1,8 4 2 ENE 1022,7 4,0
13.12.2018 14:00:00 - - - - - - -
13.12.2018 13:00:00 - - - - - - -
13.12.2018 12:00:00 -0,3 -1,5 4 2 NE 1021,9 4,0
13.12.2018 11:00:00 - - - - - - -
13.12.2018 10:00:00 - - - - - - -
13.12.2018 09:00:00 -0,5 -1,1 7 4 ENE 1020,6 4,0
13.12.2018 08:00:00 - - - - - - -
13.12.2018 07:00:00 - - - - - - -
13.12.2018 06:00:00 -0,2 -1,1 7 4 NE 1019,5 -
13.12.2018 05:00:00 - - - - - - -
13.12.2018 04:00:00 - - - - - - -
13.12.2018 03:00:00 -0,3 -0,8 11 6 NNE 1019,7 -
13.12.2018 02:00:00 - - - - - - -
13.12.2018 01:00:00 - - - - - - -
13.12.2018 00:00:00 0,0 -1,7 11 6 NNE 1019,4 -
12.12.2018 23:00:00 - - - - - - -
12.12.2018 22:00:00 - - - - - - -
12.12.2018 21:00:00 0,1 -1,8 7 4 NNE 1019,4 -
12.12.2018 20:00:00 - - - - - - -
12.12.2018 19:00:00 - - - - - - -
12.12.2018 18:00:00 0,6 -2,1 7 4 ENE 1019,6 -
12.12.2018 17:00:00 - - - - - - -
12.12.2018 16:00:00 - - - - - - -
12.12.2018 15:00:00 0,9 -0,4 4 2 N 1019,0 4,0
12.12.2018 14:00:00 - - - - - - -
12.12.2018 13:00:00 - - - - - - -
12.12.2018 12:00:00 1,1 0,1 4 2 N 1019,3 4,0
12.12.2018 11:00:00 - - - - - - -
12.12.2018 10:00:00 - - - - - - -
12.12.2018 09:00:00 0,3 0,2 0 0 N 1018,9 2,0
12.12.2018 08:00:00 - - - - - - -
12.12.2018 07:00:00 - - - - - - -
12.12.2018 06:00:00 0,5 0,1 4 2 N 1018,1 -
12.12.2018 05:00:00 - - - - - - -
12.12.2018 04:00:00 - - - - - - -
12.12.2018 03:00:00 0,5 -0,1 0 0 N 1017,8 -
12.12.2018 02:00:00 - - - - - - -
12.12.2018 01:00:00 - - - - - - -
12.12.2018 00:00:00 0,9 0,2 4 2 WSW 1016,9 -
11.12.2018 23:00:00 - - - - - - -
11.12.2018 22:00:00 - - - - - - -
11.12.2018 21:00:00 0,8 0,2 0 0 N 1015,0 -
11.12.2018 20:00:00 - - - - - - -
11.12.2018 19:00:00 - - - - - - -
11.12.2018 18:00:00 1,0 0,3 4 2 SSE 1013,4 -
11.12.2018 17:00:00 - - - - - - -
11.12.2018 16:00:00 - - - - - - -
11.12.2018 15:00:00 0,8 0,2 4 2 SSE 1011,8 4,0
11.12.2018 14:00:00 - - - - - - -
11.12.2018 13:00:00 - - - - - - -
11.12.2018 12:00:00 0,7 -0,1 7 4 SSE 1010,9 4,0
11.12.2018 11:00:00 - - - - - - -
11.12.2018 10:00:00 - - - - - - -
11.12.2018 09:00:00 0,3 0,0 4 2 SE 1010,2 2,0
11.12.2018 08:00:00 - - - - - - -
11.12.2018 07:00:00 - - - - - - -
11.12.2018 06:00:00 0,2 -0,1 4 2 SE 1010,0 -
11.12.2018 05:00:00 - - - - - - -
11.12.2018 04:00:00 - - - - - - -
11.12.2018 03:00:00 0,5 -0,1 4 2 SE 1010,5 -
11.12.2018 02:00:00 - - - - - - -
11.12.2018 01:00:00 - - - - - - -
11.12.2018 00:00:00 1,0 -0,3 7 4 SSE 1010,8 -
10.12.2018 23:00:00 - - - - - - -
10.12.2018 22:00:00 - - - - - - -
10.12.2018 21:00:00 1,0 -0,3 4 2 SSE 1010,2 -
10.12.2018 20:00:00 - - - - - - -
10.12.2018 19:00:00 - - - - - - -
10.12.2018 18:00:00 1,1 -0,3 7 4 S 1009,3 -
10.12.2018 17:00:00 - - - - - - -
10.12.2018 16:00:00 - - - - - - -
10.12.2018 15:00:00 1,0 -0,2 4 2 S 1007,8 4,0
10.12.2018 14:00:00 - - - - - - -
10.12.2018 13:00:00 - - - - - - -
10.12.2018 12:00:00 1,5 -0,1 4 2 SSW 1006,1 4,0
10.12.2018 11:00:00 - - - - - - -
10.12.2018 10:00:00 - - - - - - -
10.12.2018 09:00:00 0,8 0,1 0 0 N 1005,2 4,0
10.12.2018 08:00:00 - - - - - - -
10.12.2018 07:00:00 - - - - - - -
10.12.2018 06:00:00 0,2 -0,5 4 2 SSE 1004,6 -
10.12.2018 05:00:00 - - - - - - -
10.12.2018 04:00:00 - - - - - - -
10.12.2018 03:00:00 -1,1 -1,7 4 2 SE 1005,4 -
10.12.2018 02:00:00 - - - - - - -
10.12.2018 01:00:00 - - - - - - -

tt = temperature
td = dewpoint
ff = wind speed
dd = wind direction
ppp = reduced air pressure
vv = visibility

Next stations